TimeCST,TemperatureF,Dew PointF,Humidity,Sea Level PressureIn,VisibilityMPH,Wind Direction,Wind SpeedMPH,Gust SpeedMPH,PrecipitationIn,Events,Conditions,WindDirDegrees,DateUTC
12:53 AM,34.0,30.9,89,30.35,10.0,Calm,Calm,-,N/A,,Clear,0,2012-11-16 06:53:00
1:53 AM,33.1,30.0,89,30.35,10.0,Calm,Calm,-,N/A,,Clear,0,2012-11-16 07:53:00
2:53 AM,32.0,28.9,88,30.36,10.0,Calm,Calm,-,N/A,,Clear,0,2012-11-16 08:53:00
3:53 AM,30.0,28.0,92,30.35,8.0,Calm,Calm,-,N/A,,Clear,0,2012-11-16 09:53:00
4:53 AM,30.0,28.0,92,30.36,7.0,Calm,Calm,-,N/A,,Clear,0,2012-11-16 10:53:00
5:53 AM,32.0,28.9,88,30.38,10.0,Calm,Calm,-,N/A,,Clear,0,2012-11-16 11:53:00
6:53 AM,28.0,27.0,96,30.40,4.0,Calm,Calm,-,N/A,,Clear,0,2012-11-16 12:53:00
7:53 AM,36.0,33.1,89,30.42,7.0,Calm,Calm,-,N/A,,Clear,0,2012-11-16 13:53:00
8:53 AM,42.1,34.0,73,30.43,10.0,NE,4.6,-,N/A,,Clear,40,2012-11-16 14:53:00
9:53 AM,48.9,36.0,61,30.43,10.0,NNE,3.5,-,N/A,,Clear,20,2012-11-16 15:53:00
10:53 AM,53.1,35.1,50,30.42,10.0,NE,8.1,-,N/A,,Clear,50,2012-11-16 16:53:00
11:53 AM,55.0,34.0,45,30.39,10.0,NNE,4.6,-,N/A,,Clear,30,2012-11-16 17:53:00
12:53 PM,57.0,33.1,40,30.37,10.0,Variable,5.8,-,N/A,,Clear,0,2012-11-16 18:53:00
1:53 PM,57.9,30.9,36,30.36,10.0,North,5.8,-,N/A,,Clear,360,2012-11-16 19:53:00
2:53 PM,57.9,30.9,36,30.36,10.0,North,10.4,-,N/A,,Clear,350,2012-11-16 20:53:00
3:53 PM,57.0,32.0,39,30.37,10.0,North,8.1,-,N/A,,Clear,360,2012-11-16 21:53:00
4:53 PM,50.0,30.9,48,30.37,10.0,North,6.9,-,N/A,,Clear,360,2012-11-16 22:53:00
5:53 PM,46.9,33.1,59,30.38,10.0,North,3.5,-,N/A,,Clear,10,2012-11-16 23:53:00
6:53 PM,44.1,33.1,65,30.39,10.0,North,3.5,-,N/A,,Clear,360,2012-11-17 00:53:00
7:53 PM,41.0,30.9,67,30.39,10.0,Calm,Calm,-,N/A,,Clear,0,2012-11-17 01:53:00
8:53 PM,44.1,28.0,53,30.40,10.0,NNE,5.8,-,N/A,,Clear,20,2012-11-17 02:53:00
9:53 PM,39.9,28.9,65,30.41,10.0,Calm,Calm,-,N/A,,Clear,0,2012-11-17 03:53:00
10:53 PM,36.0,28.0,73,30.41,10.0,Calm,Calm,-,N/A,,Clear,0,2012-11-17 04:53:00
11:53 PM,37.0,28.0,70,30.42,10.0,Calm,Calm,-,N/A,,Clear,0,2012-11-17 05:53:00